Adamsville, PA

4:35 PM EDT on August 27, 2016 (GMT -0400)
Port Meadville

Weather History for KGKJ - May, 2014

Change the Weather History Date:

Wednesday, May 7, 2014

  Actual Average Record
Temperature  
Mean Temperature 56 °F -  
Max Temperature 64 °F 65 °F 89 °F (1949)
Min Temperature 48 °F 37 °F 24 °F (1970)
Degree Days  
Heating Degree Days 10    
Growing Degree Days 6 (Base 50)    
Moisture  
Dew Point 36 °F    
Average Humidity 48    
Maximum Humidity 57    
Minimum Humidity 43    
Precipitation  
Precipitation 0.00 in - - ()
Sea Level Pressure  
Sea Level Pressure 30.07 in    
Wind  
Wind Speed 9 mph (East)    
Max Wind Speed 13 mph    
Max Gust Speed 17 mph    
Visibility 10 miles    
Events Rain    
Averages and records for this station are not official NWS values.
T = Trace of Precipitation, MM = Missing Value Source: NWS Daily Summary

Daily Weather History Graph

Daily Weather History Graph

Search for Another Location

Airport or City:

Trip Planner

Search our weather history database for the weather conditions in past years. The results will help you decide how hot, cold, wet, or windy it might be!

Date:

Astronomy

May. 07, 2014 Rise Set
Actual Time 6:10 AM EDT 8:25 PM EDT
Civil Twilight 5:39 AM EDT 8:56 PM EDT
Nautical Twilight 5:01 AM EDT 9:34 PM EDT
Astronomical Twilight 4:19 AM EDT 10:16 PM EDT
Moon 1:23 PM EDT (5/7) 2:14 AM EDT (5/7)
Length of Visible Light 15h 16m
Length of Day
14h 15m
First Quarter, 55% of the Moon is Illuminated
May 7
First Quarter
May 14
Full
May 21
Last Quarter
May 28
New
Jun 5
First Quarter

Hourly Weather History & Observations

Time (EDT) Temp. Dew Point Humidity Pressure Visibility Wind Dir Wind Speed Gust Speed Precip Events Conditions
12:53 AM 48.9 °F 30.0 °F 48% 30.09 in 10.0 mi ENE 9.2 mph - N/A   Clear
1:53 AM 48.0 °F 30.0 °F 50% 30.08 in 10.0 mi East 8.1 mph - N/A   Clear
2:53 AM 48.0 °F 30.0 °F 50% 30.06 in 10.0 mi East 12.7 mph - N/A   Clear
3:53 AM 48.0 °F 30.0 °F 50% 30.07 in 10.0 mi East 8.1 mph - N/A   Clear
5:53 AM 48.0 °F 30.0 °F 50% 30.04 in 10.0 mi East 8.1 mph - N/A   Clear
6:53 AM 48.9 °F 30.0 °F 48% 30.09 in 10.0 mi East 8.1 mph - N/A   Scattered Clouds
8:53 AM 50.0 °F 30.9 °F 48% 30.11 in 10.0 mi East 8.1 mph 16.1 mph N/A   Partly Cloudy
9:53 AM 50.0 °F 34.0 °F 54% 30.13 in 10.0 mi North - - 0.00 in Rain Light Rain
10:53 AM 51.1 °F 35.1 °F 54% 30.17 in 10.0 mi East 5.8 mph - 0.00 in   Overcast
11:53 AM 55.0 °F 34.0 °F 45% 30.12 in 10.0 mi Variable 6.9 mph - N/A   Mostly Cloudy
1:53 PM 60.1 °F 39.0 °F 46% 30.09 in 10.0 mi East 12.7 mph - 0.00 in   Mostly Cloudy
2:53 PM 61.0 °F 39.0 °F 44% 30.08 in 10.0 mi East 11.5 mph 17.3 mph N/A   Overcast
3:53 PM 63.0 °F 39.9 °F 43% 30.04 in 10.0 mi ESE 8.1 mph 17.3 mph N/A   Scattered Clouds
4:53 PM 63.0 °F 41.0 °F 45% 30.05 in 10.0 mi East 8.1 mph - N/A   Mostly Cloudy
5:53 PM 63.0 °F 41.0 °F 45% 30.06 in 10.0 mi East 6.9 mph - 0.00 in   Mostly Cloudy
6:53 PM 63.0 °F 39.9 °F 43% 30.02 in 10.0 mi Variable 5.8 mph 17.3 mph N/A   Scattered Clouds
7:53 PM 61.0 °F 39.9 °F 46% 30.05 in 10.0 mi East 11.5 mph - N/A   Clear
8:53 PM 60.1 °F 39.9 °F 47% 30.06 in 10.0 mi ESE 6.9 mph - N/A   Clear
9:53 PM 59.0 °F 41.0 °F 51% 30.06 in 10.0 mi East 9.2 mph - N/A   Clear
10:53 PM 57.9 °F 41.0 °F 53% 30.05 in 10.0 mi ESE 5.8 mph - N/A   Mostly Cloudy
11:53 PM 57.0 °F 42.1 °F 57% 30.04 in 10.0 mi Variable 4.6 mph - 0.00 in   Overcast